User: anonymous   Login
Location: Unspecified
(0.0000°N, 0.0000°E)
Time: 20:21:20
(UTC+00:00)
Language:

STARLINK-35350 - Orbit

View from above orbital plane
View from above orbital plane
View from above satellite
View from above satellite

Ground track
Ground track

The orbit is defined by the following mean orbital elements,

1 66187U          26144.67450740 +.00000000 +00000-0 +31150-3 0 00004
2 66187  53.1564 252.5817 0000931 107.6517 252.4585 15.30202850    01
Epoch (UTC): 24 May 2026 16:11:17
Eccentricity: 0.0000931
inclination: 53.1564°
perigee height: 475 km
apogee height: 476 km
right ascension of ascending node: 252.5817°
argument of perigee: 107.6517°
revolutions per day: 15.30202850
mean anomaly at epoch: 252.4585°

The dashed part of the orbit path shows where the satellite is in the earth's shadow,  

DLR